POLYTECH-UNIVERSE 3 (R*)

Last updated on Wed Sep 09 2026 00:03:15 GMT+0000 (Coordinated Universal Time)

1 57191U 23091AB 26251.58009894 .00004662 00000+0 22053-3 0 9999 2 57191 97.4973 308.8290 0014849 192.7406 167.3456 15.19773342176614
UTC large
Height (km)
Speed (km/s)
/
Latitude / Longitude
Inclination (degrees)
Orbital Period (minutes)
Azimuth
Elevation
Range (km)
Doppler Factor

Next 0 passes for location: London (51.5072 / 0.1276)

No passes found over London.
POLYTECH-UNIVERSE 3 (R*)